Volver al catálogo

SL-8 DEB

ActivoLEO
NORAD 21157·DEBRIS·🇷🇺 Russia

Lanzado Feb 12, 1991 desde Plesetsk Cosmodrome

Loading…

Próximos Pases (próximas 24 horas)

TLE

ActualizadoSource: Space-Track

Época: Sep 14, 2026, 14:46 UTC

1 21157U 91009U   26257.61596250 -.00000030  00000-0 -13586-3 0  9992
2 21157  73.9499 212.6392 0173942 116.9448 354.5837 12.24126522587702

Sigue SL-8 DEB en tiempo real con AllMySat

Download on the App Store